[[{"header":{"parameterUnit":"m.s-1","parameterCategory":1,"la1":30.2991,"la2":30.254,"lo1":-89.0895,"lo2":-89.0444,"dy":0.0017,"dx":0.0017,"nx":28,"ny":28,"refTime":"2024-03-26T09:00:00:Z","depth":0,"parameterNumber":2,"parameterNumberName":"U-component_of_WINDS"},"data":[0,0,0,0,0,0,0,0,0,0,0,0,0,0,0,0,0,0,0,0,0,0,0,0,0,0,0,0,0,0,0,0,0,0,0,0,0,0,0,0,0,0,0,0,0,0,0,0,0,0,0,0,0,0,0,0,0,0,0.9653,0.9653,0,0.9671,0.9672,0.9672,0.9664,0.9664,0.9663,0.9663,0.9681,0.9681,0.9682,0,0,0,0,0,0,0,0,0,0,0,0,0,0.961,0.961,0.9652,0.9653,0.9653,0.9671,0.9672,0.9672,0.9664,0.9664,0.9663,0.9663,0.968,0.9681,0.9682,0,0,0,0,0,0,0,0,0,0,0,0,0,0.9628,0.9611,0.9652,0.9652,0.9652,0.9671,0.9672,0.9672,0.9665,0.9664,0.9663,0.9663,0.968,0.9681,0.9682,0.9703,0,0,0.9686,0.9687,0,0,0,0,0,0,0,0,0.9627,0.963,0.9651,0.9652,0.9652,0.9665,0.9663,0.9682,0.9665,0.966,0.9663,0.9662,0.9676,0.9677,0.9682,0.9704,0.9705,0.9687,0.9687,0.9688,0.9688,0,0,0,0,0,0,0,0.9626,0.9629,0.966,0.9652,0.9652,0.965,0.9652,0.9666,0.9671,0.966,0.9659,0.9662,0.9676,0.9681,0.9683,0.9705,0.9687,0.9688,0.9688,0.9689,0.9747,0.9748,0,0,0,0,0,0,0.9625,0.9628,0.9659,0.966,0.9638,0.9651,0.9653,0.9661,0.9671,0.9672,0.9662,0.9662,0.9679,0.9681,0.9683,0.9709,0.9688,0.9689,0.969,0.9746,0.9747,0.9748,0,0,0,0,0,0,0.9624,0.9628,0.9659,0.9644,0.9648,0.9653,0.9662,0.9662,0.9667,0.9673,0.9673,0.9667,0.9679,0.9681,0.9699,0.9709,0.969,0.9691,0.9745,0.9746,0.9747,0.976,0,0,0,0,0,0,0.9623,0.9627,0.9635,0.9644,0.9649,0.9674,0.9662,0.9663,0.967,0.9669,0.9677,0.9678,0.9678,0.9697,0.97,0.9711,0.9692,0.9744,0.9746,0.9747,0.9759,0.9762,0.9764,0,0,0,0,0,0.9621,0.9638,0.9636,0.964,0.9659,0.9675,0.9677,0.9678,0.9671,0.9679,0.9683,0.9678,0.9708,0.9699,0.9702,0.9714,0.9744,0.9745,0.9747,0.9758,0.9761,0.9764,0,0,0,0,0,0,0.9628,0.9639,0.9637,0.9657,0.9665,0.9673,0.9684,0.9681,0.9691,0.969,0.9689,0.9691,0.971,0.9713,0.9703,0.9735,0.9725,0.9727,0.9732,0.9735,0.9738,0.9736,0.9693,0,0,0,0,0,0.9633,0.9645,0.9653,0.967,0.9674,0.9678,0.9685,0.9685,0.9694,0.9697,0.9702,0.971,0.9721,0.9728,0.9739,0.976,0.9762,0.977,0.9772,0.9774,0.9776,0.9788,0.9792,0.9753,0.9753,0.9753,0,0,0.9641,0.9648,0.9656,0.9672,0.9678,0.9691,0.9681,0.9695,0.9704,0.9699,0.9716,0.972,0.9729,0.9748,0.9757,0.9752,0.9788,0.9776,0.9778,0.9779,0.979,0.9794,0.9797,0.9754,0.9754,0.9754,0,0,0.9662,0.9669,0.9684,0.9692,0.9702,0.9705,0.9709,0.9718,0.9721,0.9738,0.9735,0.9746,0.9765,0.9772,0.9778,0.9804,0.98,0.9808,0.9821,0.9833,0.9836,0.9839,0.9848,0.9852,0.981,0.981,0.981,0,0.9671,0.9691,0.9692,0.9707,0.9714,0.9711,0.9727,0.9733,0.9746,0.9751,0.9746,0.9771,0.9777,0.9798,0.9805,0.981,0.9814,0.9806,0.9835,0.9838,0.9841,0.985,0.9853,0.9811,0.981,0.981,0.981,0,0.9701,0.9715,0.9726,0.974,0.9748,0.9763,0.9767,0.9776,0.9776,0.9779,0.9797,0.9805,0.9817,0.9822,0.9821,0.9844,0.9841,0.9835,0.9825,0.9845,0.9854,0.9857,0.9812,0.9811,0.9811,0.9811,0,0,0.9726,0.9742,0.9746,0.9753,0.9765,0.9776,0.9791,0.9804,0.9812,0.9821,0.9834,0.9851,0.9847,0.9854,0.9854,0.9865,0.9886,0.9858,0.9858,0.9863,0.9911,0.9915,0.9919,0.9884,0.9884,0.9885,0.9911,0,0.9749,0.9776,0.9779,0.9803,0.9816,0.9814,0.9827,0.9836,0.984,0.9852,0.9856,0.9869,0.9862,0.9866,0.9876,0.9881,0.9895,0.9879,0.9895,0.9896,0.9893,0.9924,0.9927,0.9951,0.9914,0.9915,0.9915,0,0.9778,0.979,0.9816,0.9827,0.9833,0.9845,0.9858,0.9869,0.9879,0.9882,0.9891,0.989,0.9905,0.9895,0.9917,0.9906,0.9913,0.9916,0.9917,0.9918,0.9906,0.9925,0.9959,0.9963,0.992,0.992,0.992,0,0.9794,0.9816,0.9835,0.9841,0.9855,0.9864,0.987,0.988,0.9888,0.9899,0.9905,0.9917,0.9924,0.9934,0.9937,0.9929,0.9959,0.9949,0.9961,0.9961,0.9967,0.9966,1.0002,0.9972,0.9972,0.9972,0.9972,0,0.9819,0.9834,0.9843,0.9854,0.9872,0.9875,0.9893,0.9899,0.9908,0.992,0.9919,0.9931,0.9934,0.9947,0.9949,0.9967,0.997,0.9972,0.9973,0.9972,0.9972,0.9976,0.9974,0.9973,0.9973,0.9972,0.9972,0,0.9839,0.9845,0.9865,0.9878,0.9881,0.9894,0.9904,0.9915,0.992,0.9936,0.994,0.9947,0.9962,0.9966,0.9983,0.9985,1.0006,1.0005,1.0003,1.0002,1.0015,1.0014,1.0054,1.006,1.0026,1.0027,1.0027,0,0.9854,0.9866,0.9881,0.9889,0.9896,0.991,0.9919,0.9924,0.9933,0.9947,0.9956,0.9971,0.9983,1.0006,1.0013,1.0026,1.0025,1.0039,1.0027,1.0027,1.0025,1.0025,1.0026,1.004,1.0041,1.0041,1.0041,0,0.988,0.9883,0.9896,0.9911,0.9922,0.9934,0.9945,0.9952,0.9958,0.9968,0.9984,0.9993,1.0012,1.0027,1.0041,1.0047,1.0045,1.0045,1.0049,1.0048,1.0046,1.0048,1.0008,1.0044,1.0044,1.0043,1.0043,1.0043,0.9898,0.9909,0.9922,0.9937,0.9946,0.9957,0.9968,0.9975,0.9989,1.0005,1.0007,1.0023,1.0035,1.0053,1.0061,1.0074,1.007,1.0075,1.0076,1.0077,1.0078,1.0045,1.0076,1.0076,1.0076,1.0076,1.0076,0,0.9924,0.9932,0.9946,0.9963,0.9975,0.9974,0.9987,0.9997,1.0012,1.0023,1.0035,1.0054,1.0068,1.0077,1.0092,1.0101,1.01,1.0104,1.0103,1.0105,1.0081,1.0076,1.0104,1.0104,1.0104,1.0104,1.0104,1.0104,0.9939,0.9958,0.9963,0.9987,0.9996,1.0013,1.002,1.0031,1.004,1.0061,1.0073,1.0079,1.0089,1.0105,1.0119,1.0121,1.0126,1.0131,1.0132,1.0109,1.0106,1.0104,1.0099,1.0132,1.0132,1.0155,1.0155,1.0155]},{"header":{"parameterUnit":"m.s-1","parameterCategory":1,"la1":30.2991,"la2":30.254,"lo1":-89.0895,"lo2":-89.0444,"dy":0.0017,"dx":0.0017,"nx":28,"ny":28,"refTime":"2024-03-26T09:00:00:Z","depth":0,"parameterNumber":3,"parameterNumberName":"V-component_of_WINDS"},"data":[0,0,0,0,0,0,0,0,0,0,0,0,0,0,0,0,0,0,0,0,0,0,0,0,0,0,0,0,0,0,0,0,0,0,0,0,0,0,0,0,0,0,0,0,0,0,0,0,0,0,0,0,0,0,0,0,0,0,-4.8113,-4.8113,0,-4.8157,-4.8158,-4.8158,-4.8079,-4.8076,-4.8074,-4.8071,-4.8115,-4.8119,-4.8122,0,0,0,0,0,0,0,0,0,0,0,0,0,-4.7958,-4.7961,-4.8113,-4.8113,-4.8114,-4.8157,-4.8158,-4.8159,-4.808,-4.8076,-4.8073,-4.807,-4.8114,-4.8118,-4.8122,0,0,0,0,0,0,0,0,0,0,0,0,0,-4.8016,-4.7962,-4.8113,-4.808,-4.8077,-4.8157,-4.8158,-4.8159,-4.808,-4.8076,-4.8072,-4.8069,-4.8112,-4.8118,-4.8123,-4.8236,0,0,-4.814,-4.8142,0,0,0,0,0,0,0,0,-4.8013,-4.8022,-4.8084,-4.8082,-4.808,-4.8109,-4.8119,-4.8185,-4.8081,-4.8079,-4.8071,-4.8067,-4.8116,-4.8121,-4.8138,-4.8238,-4.824,-4.814,-4.8143,-4.8146,-4.8147,0,0,0,0,0,0,0,-4.8009,-4.8019,-4.813,-4.8085,-4.8082,-4.8062,-4.8066,-4.8131,-4.8119,-4.8079,-4.8073,-4.808,-4.8114,-4.8133,-4.8138,-4.8241,-4.814,-4.8145,-4.8148,-4.815,-4.8437,-4.8441,0,0,0,0,0,0,-4.8009,-4.8016,-4.8129,-4.8132,-4.8036,-4.8068,-4.8073,-4.8103,-4.8118,-4.8117,-4.8083,-4.8076,-4.8125,-4.8132,-4.814,-4.8274,-4.8146,-4.8151,-4.8154,-4.8433,-4.8438,-4.8443,0,0,0,0,0,0,-4.8006,-4.802,-4.8127,-4.8073,-4.8085,-4.8075,-4.811,-4.8106,-4.8125,-4.8122,-4.8119,-4.8105,-4.8123,-4.8132,-4.8213,-4.8274,-4.8153,-4.8158,-4.8428,-4.8435,-4.8441,-4.8544,0,0,0,0,0,0,-4.8002,-4.8019,-4.8063,-4.8074,-4.8088,-4.8201,-4.8114,-4.811,-4.8135,-4.8126,-4.8141,-4.814,-4.812,-4.8206,-4.8219,-4.828,-4.8163,-4.8422,-4.8431,-4.8439,-4.8535,-4.8553,-4.8569,0,0,0,0,0,-4.7997,-4.8089,-4.8065,-4.8079,-4.8142,-4.8205,-4.8212,-4.8189,-4.814,-4.8184,-4.8181,-4.8139,-4.8265,-4.8215,-4.8229,-4.8292,-4.8418,-4.8428,-4.8438,-4.8527,-4.8549,-4.8568,0,0,0,0,0,0,-4.8084,-4.809,-4.8064,-4.8163,-4.8184,-4.8191,-4.8245,-4.8213,-4.8247,-4.8237,-4.8205,-4.821,-4.8298,-4.8303,-4.8246,-4.8403,-4.8334,-4.8347,-4.8397,-4.8418,-4.8434,-4.8432,-4.8167,0,0,0,0,0,-4.8115,-4.8166,-4.8168,-4.8255,-4.8268,-4.8255,-4.8281,-4.8261,-4.8281,-4.829,-4.8293,-4.8314,-4.8358,-4.8388,-4.8428,-4.8535,-4.8537,-4.8586,-4.8602,-4.8616,-4.8628,-4.8686,-4.8707,-4.8475,-4.8475,-4.8475,0,0,-4.8179,-4.8189,-4.8223,-4.8273,-4.8287,-4.8341,-4.8263,-4.8322,-4.8361,-4.8298,-4.8376,-4.8379,-4.84,-4.8495,-4.8537,-4.8502,-4.8693,-4.8629,-4.864,-4.8644,-4.8698,-4.872,-4.8739,-4.8482,-4.8481,-4.848,0,0,-4.8324,-4.8336,-4.8411,-4.8427,-4.8449,-4.844,-4.8459,-4.8471,-4.8471,-4.8549,-4.8503,-4.8548,-4.8625,-4.8642,-4.8661,-4.8813,-4.8776,-4.8827,-4.8915,-4.8971,-4.899,-4.9006,-4.9061,-4.9081,-4.8838,-4.8839,-4.8839,0,-4.8401,-4.848,-4.8453,-4.8516,-4.854,-4.8486,-4.8562,-4.8578,-4.8612,-4.863,-4.859,-4.8686,-4.8696,-4.8795,-4.8832,-4.8849,-4.8868,-4.8825,-4.8989,-4.9005,-4.902,-4.9072,-4.9093,-4.8845,-4.8844,-4.8844,-4.8843,0,-4.8574,-4.863,-4.8687,-4.8723,-4.8753,-4.8822,-4.8805,-4.8838,-4.8816,-4.8811,-4.889,-4.8901,-4.8943,-4.8964,-4.8942,-4.906,-4.9038,-4.8995,-4.8924,-4.9049,-4.9097,-4.9117,-4.8854,-4.8851,-4.885,-4.8848,0,0,-4.8775,-4.8796,-4.8818,-4.8834,-4.8855,-4.8897,-4.8963,-4.9005,-4.9035,-4.906,-4.9115,-4.9182,-4.9142,-4.9164,-4.9143,-4.9192,-4.9313,-4.9142,-4.9142,-4.9175,-4.9444,-4.9478,-4.9501,-4.9288,-4.9292,-4.9295,-4.9443,0,-4.892,-4.9036,-4.9014,-4.9126,-4.9177,-4.9127,-4.9185,-4.9204,-4.9201,-4.9244,-4.924,-4.9288,-4.9231,-4.9244,-4.9291,-4.9289,-4.9367,-4.9277,-4.9339,-4.9342,-4.9337,-4.9526,-4.9562,-4.9701,-4.9461,-4.9465,-4.9467,0,-4.9104,-4.9138,-4.9256,-4.927,-4.9291,-4.9343,-4.9381,-4.9422,-4.9442,-4.9436,-4.9461,-4.9431,-4.9497,-4.9425,-4.9515,-4.9455,-4.9479,-4.9481,-4.9486,-4.9492,-4.9413,-4.9538,-4.9745,-4.9766,-4.9496,-4.9494,-4.9492,0,-4.9241,-4.9316,-4.9396,-4.9411,-4.9429,-4.9467,-4.9476,-4.9493,-4.952,-4.9552,-4.9569,-4.9608,-4.963,-4.966,-4.9642,-4.9591,-4.9735,-4.9662,-4.9733,-4.9733,-4.9766,-4.9764,-4.9981,-4.978,-4.9779,-4.9779,-4.9779,0,-4.9405,-4.948,-4.9458,-4.9508,-4.959,-4.9563,-4.9645,-4.9648,-4.9663,-4.9712,-4.967,-4.9717,-4.9689,-4.9734,-4.9719,-4.9796,-4.9806,-4.9803,-4.9799,-4.9808,-4.9808,-4.9824,-4.9814,-4.9785,-4.9783,-4.9782,-4.9781,0,-4.9572,-4.956,-4.9645,-4.9655,-4.966,-4.972,-4.9728,-4.9774,-4.9768,-4.9831,-4.9844,-4.9835,-4.9885,-4.9869,-4.9923,-4.9913,-5.0012,-4.9994,-5.0006,-5.0002,-5.0074,-5.0068,-5.0308,-5.0339,-5.0117,-5.0119,-5.0121,0,-4.9678,-4.9735,-4.9751,-4.9782,-4.9795,-4.9844,-4.9871,-4.9847,-4.9878,-4.9906,-4.9949,-4.9995,-5.0032,-5.0114,-5.0112,-5.0153,-5.0136,-5.0218,-5.0142,-5.015,-5.0139,-5.0136,-5.0142,-5.0233,-5.0236,-5.0238,-5.024,0,-4.9868,-4.986,-4.9902,-4.9943,-4.9977,-5.0008,-5.0034,-5.0061,-5.0039,-5.0075,-5.0126,-5.0155,-5.021,-5.0257,-5.0295,-5.0303,-5.0268,-5.0263,-5.0282,-5.0293,-5.0297,-5.0297,-5.0048,-5.0258,-5.0256,-5.0255,-5.0254,-5.0253,-5.0009,-5.0057,-5.0077,-5.0125,-5.0143,-5.0169,-5.0213,-5.0213,-5.0256,-5.03,-5.0283,-5.0342,-5.0361,-5.0408,-5.0422,-5.0467,-5.0436,-5.0463,-5.047,-5.0477,-5.0487,-5.0289,-5.0474,-5.0473,-5.0473,-5.0472,-5.0472,0,-5.0198,-5.0208,-5.0253,-5.0292,-5.033,-5.0295,-5.0322,-5.0356,-5.041,-5.0431,-5.0468,-5.0527,-5.0573,-5.0574,-5.0617,-5.0653,-5.0638,-5.0665,-5.0663,-5.0666,-5.0512,-5.0492,-5.0677,-5.0677,-5.0677,-5.0677,-5.0676,-5.0676,-5.0301,-5.0381,-5.0375,-5.0463,-5.0473,-5.0532,-5.0551,-5.0574,-5.0591,-5.066,-5.0698,-5.0699,-5.0712,-5.0756,-5.0796,-5.0795,-5.0813,-5.0846,-5.084,-5.0696,-5.0676,-5.0657,-5.0638,-5.085,-5.085,-5.0989,-5.0991,-5.0992]}]]